Location: Marcé
(47.5801°N, 0.3280°W)
Time: 20:41:15
(UTC+01:00)

Tiros 1 - Pass Details

Date: 06 December 2021
Orbit: 630 x 663 km, 48.4° (Epoch: 20 January)

Event Time Altitude Azimuth Distance (km) Brightness Sun altitude
Rises 17:14:49 0° 188° (S) 2,903 11.2 -1.5°
Reaches altitude 10° 17:18:24 10° 159° (SSE) 2,005 9.8 -2.0°
Maximum altitude 17:20:20 13° 134° (SE) 1,847 9.4 -2.3°
Drops below altitude 10° 17:22:16 10° 109° (ESE) 2,016 9.3 -2.5°
Enters shadow 17:25:31 - 83° (E) 2,821 9.9 -3.0°
Sets 17:25:53 0° 81° (E) 2,937 - -3.1°
